FENGYUN 1C DEB, 31788

Orbit data source: Space-Track

FENGYUN 1C DEB, 31788 is space debris in SSO originally from a launch on Mon, 10 May 1999 UTC launched from the Taiyaun Space Center, China (TSC). Fengyun 1C debris stems from the Chinese weather satellite Fengyun-1C, which was intentionally destroyed by a Chinese anti-satellite missile in 2007. This event dramatically increased the amount of space debris, with thousands of trackable fragments posing hazards to satellites and human spaceflight. The Fengyun 1C debris cloud has become a focal point in discussions about space sustainability and the need for international regulations to prevent the creation of new debris.

Loading next visibility...
Identifier
31788, 1999-025CGP
Orbit
SSO
Country
Flag of CNCN / PRC
Related business
Manufacturer
Unknown
Mission
Spacecraft
Bus & Motor
Unknown
Mass
Unknown
Launch date (UTC)
1999-05-10 (27 years ago)
Launch vehicle
Unknown
Launch site
Taiyaun Space Center, China (TSC)
Object type
Payload
Rocket body
Debris
Shape & HBR
Unknown shape, 0.1 m
Radar Cross Section
Medium (>0.1 m² and <1 m²)

Expand to show TLE details & history
Last TLE update: 1 day ago

TLE from 1 day ago
0 FENGYUN 1C DEB
1 31788U 99025CGP 26149.49452608  .00002575  00000-0  22737-2 0  9994
2 31788 102.5644 339.8097 0466012  77.1588 314.8013 13.46098977928615
Epoch: 2026-05-29T11:52Z
TLE epoch observation values (Epoch: 2026-05-29T11:52:07.053Z)
Latitude
27.32838°
Longitude
-91.82214°
Altitude
853.168 km
Speed
7.545 km/s
True Right ascension
22h 12m 55s
True Declination
27° 11' 25"
Sunlit
Object was in daylight at epoch
Visualization orbit readout
Latitude
Unknown
Longitude
Unknown
Altitude
Unknown
Speed
Unknown
Apparent Right ascension
Unknown
Apparent Declination
Unknown
Sunlit
N/A
Visualization observer readout
Local Sidereal Time
21:58:30
Azimuth
Unknown
Elevation
Unknown
Doppler factor
Unknown
Orbital elements
Apogee altitude
1,431.861 km
Perigee altitude
736.362 km
Semi-major axis
7,462.249 km
Eccentricity
0.0466
Inclination
102.5644°
RAAN
339.8097°
Arg. of periapsis
77.1588°
True anomaly
310.85345°
Mean anomaly
314.8013°
Eccentric anomaly
312.84358°
Mean motion
3.36696 °/min
Orbital period
106.92 mins
BSTAR
0.0022737
Loading maneuver chart data...
Computing Atmospheric mass density...
Loading historical data...
Loading historical data...
Loading historical data...
Loading historical data...
Loading historical data...
Loading historical data...
Loading historical data...

Documentation

Showing up to 5 results
|